Location: Newark
(47.5833°N, 8.1500°E)
Time: 08:49:04
(UTC+00:00)

Vanguard 1 - Pass Details

Date: 01 November 2020
Orbit: 650 x 3833 km, 34.2° (Epoch: 29 November)

Event Time Altitude Azimuth Distance (km) Brightness Sun altitude
Rises 17:51:26 0° 281° (W) 7,872 16.2 -17.6°
Reaches altitude 10° 17:58:55 10° 269° (W) 6,549 15.5 -18.9°
Maximum altitude 18:11:55 22° 229° (SW) 4,687 14.0 -21.1°
Drops below altitude 10° 18:21:30 10° 185° (S) 4,658 13.5 -22.7°
Sets 18:25:38 0° 170° (S) 5,172 13.6 -23.4°
